Lapse_Rate
1.4 1.5 1.4 1.3 1.2 1.5 1.5 1.5 1.0 3.9 2.8 3.2 3.5 3.3 3.5 4.1 4.3 4.9 5.6 6.2 6.3 6.5 7.9 9.4 9.6 9.6 9.4 9.3 9.6 9.1 8.5 8.5 8.3 8.7 9.5 8.8 8.6 7.8 7.9 9.0 9.2 9.7 9.6 9.9
1.4 1.3 1.3 1.2 1.1 1.3 1.7 2.2 2.3 5.6 4.5 3.2 4.5 5.0 5.1 5.1 5.1 4.9 5.8 6.5 6.6 7.5 7.8 8.0 8.3 9.4 9.7 9.7 9.6 9.4 9.5 9.0 9.0 8.7 9.3 9.7 9.3 8.8 9.0 8.9 8.9 9.5 9.9 9.7
1.2 1.3 1.8 1.9 2.3 2.8 3.1 3.4 3.8 5.8 6.9 6.1 6.4 6.7 6.1 5.9 5.9 5.6 6.3 6.9 7.1 7.3 7.7 8.1 7.8 8.4 8.9 9.6 9.7 9.6 9.6 9.4 8.8 8.9 8.3 9.4 9.6 8.6 8.5 8.9 9.4 8.9 9.5 9.6
2.3 2.8 3.6 4.1 4.6 5.1 5.2 5.3 5.4 6.5 6.0 7.4 7.5 7.2 6.3 5.5 5.3 6.4 6.4 6.0 6.3 7.4 7.6 7.7 8.0 8.1 8.5 9.3 9.6 9.5 9.5 8.7 9.3 8.8 9.2 9.6 9.7 9.6 9.6 9.5 8.3 9.4 8.8 9.4
4.1 4.9 5.9 6.7 6.6 6.5 6.3 6.2 6.1 6.5 6.5 7.0 7.4 6.6 6.6 7.1 6.2 7.6 6.9 5.9 5.8 6.1 4.9 6.3 6.6 7.2 8.4 9.0 9.3 9.5 9.4 8.8 8.6 9.2 9.4 9.4 9.6 9.7 9.7 9.7 8.9 8.3 8.9 9.5
6.1 6.8 6.9 6.9 7.0 6.6 6.7 6.6 6.7 6.5 7.0 7.1 7.6 8.0 7.6 7.1 7.2 7.0 6.9 6.3 5.7 5.5 5.8 5.6 5.3 6.1 6.6 7.0 8.7 9.3 9.6 8.9 8.8 8.6 8.8 9.6 9.7 9.5 9.7 9.7 9.7 9.6 9.6 8.9
7.4 7.3 7.2 7.1 7.1 7.1 6.9 7.1 6.9 7.0 7.0 7.1 7.4 7.7 7.9 7.6 7.4 7.4 7.3 6.7 5.8 6.9 5.6 6.1 6.0 6.0 6.5 6.9 8.5 8.9 9.7 9.2 8.7 8.8 9.5 9.4 8.6 9.6 9.7 9.6 9.7 9.7 9.7 9.2
7.4 7.3 7.2 7.2 7.2 7.2 7.2 7.0 7.1 6.9 6.7 7.0 7.6 7.8 7.9 7.4 8.0 7.6 7.4 7.3 6.8 6.4 6.1 6.2 6.1 6.9 7.9 8.1 8.3 8.9 9.4 9.4 8.9 9.4 9.3 9.1 9.5 9.6 9.5 9.6 9.6 9.5 9.6 9.6
7.4 7.3 7.4 7.3 7.3 7.2 7.3 7.0 7.0 7.1 7.0 8.0 7.3 7.2 7.2 7.2 7.5 7.7 7.7 7.4 8.1 6.8 6.0 5.7 5.5 5.4 7.6 8.6 8.7 8.3 8.5 8.7 9.1 9.2 9.0 9.1 8.7 8.6 8.7 8.4 8.3 8.8 8.9 9.1
7.1 7.3 7.3 7.3 7.3 7.1 7.2 7.1 7.0 7.1 7.1 7.8 7.5 7.2 7.0 7.2 7.2 7.5 7.2 7.4 7.5 7.2 6.8 5.9 5.4 5.4 6.6 7.6 8.8 8.2 8.1 8.4 8.6 8.8 9.0 8.7 8.9 8.5 8.4 8.4 8.6 8.6 8.6 8.8
7.1 7.2 7.3 7.4 7.4 7.2 7.3 7.3 7.0 7.0 7.1 8.0 7.6 7.6 6.8 6.9 6.9 6.8 6.6 6.7 6.7 7.1 6.8 6.4 6.2 6.0 6.9 7.4 8.0 8.7 8.2 8.3 8.2 8.7 9.0 8.4 8.5 7.5 7.2 7.8 8.1 8.4 8.4 8.3
7.1 7.3 7.5 7.5 7.4 7.4 7.5 7.4 7.1 7.1 7.1 7.7 7.5 7.7 7.6 7.5 7.2 6.6 6.6 6.3 6.4 7.0 6.8 6.2 6.2 6.3 6.6 7.1 7.7 8.2 8.1 8.2 8.8 8.4 8.3 8.4 8.0 8.2 8.2 8.4 7.8 8.0 8.0 8.3
7.2 7.3 7.4 7.5 7.4 7.4 7.4 7.3 7.3 7.3 7.3 7.8 7.7 7.9 7.7 7.5 7.8 7.2 6.3 6.4 6.7 6.4 6.3 6.1 6.1 6.2 6.2 6.6 7.1 7.7 8.5 9.1 9.2 9.1 9.0 8.8 8.0 7.4 7.3 7.8 7.5 7.3 7.6 7.8
7.2 7.3 7.4 7.4 7.4 7.3 7.3 7.3 7.2 7.1 7.1 7.0 7.7 7.0 7.4 7.4 7.7 7.3 7.5 7.1 6.3 6.5 6.1 6.0 5.7 5.9 6.0 6.3 6.8 6.9 7.5 8.1 8.6 9.4 8.9 7.9 7.5 6.9 6.6 7.7 7.4 7.4 7.8 7.8
7.1 7.2 7.2 7.3 7.3 7.3 7.2 7.2 7.0 7.0 6.9 7.0 7.5 7.6 7.5 7.4 7.4 7.5 7.0 6.9 6.4 6.1 5.8 5.8 5.8 5.8 5.5 5.6 5.7 6.2 6.5 6.8 7.4 7.9 7.9 8.0 7.3 6.9 7.2 7.5 7.3 7.2 7.2 7.2
7.3 7.2 7.1 7.0 6.9 6.9 7.0 7.0 6.9 6.8 6.4 6.4 6.4 7.3 7.6 7.4 7.4 7.5 7.6 7.3 6.2 6.0 6.3 5.7 5.8 5.9 5.6 5.7 5.6 5.4 6.0 5.8 6.0 6.7 6.4 6.5 7.0 7.4 7.4 6.9 6.8 6.8 6.7 6.7
7.1 7.1 7.1 7.0 7.0 6.8 6.6 6.7 6.6 6.5 6.4 6.3 6.8 7.2 7.2 7.3 7.2 7.0 7.1 6.7 6.7 6.4 6.4 6.2 6.1 5.9 6.0 5.6 5.2 5.1 5.1 5.5 5.7 6.2 5.0 5.2 6.6 6.7 6.7 6.9 6.4 5.9 5.8 6.0
7.0 7.0 6.8 6.7 6.7 6.6 6.5 6.4 6.3 6.4 6.3 6.1 6.3 6.9 7.1 7.0 6.9 6.9 7.1 6.6 6.2 6.0 5.5 5.4 5.9 5.9 5.9 5.5 5.6 5.4 5.1 5.2 5.5 5.8 5.7 6.7 6.5 6.1 6.2 6.3 5.7 5.4 5.5 5.6
7.0 7.0 7.0 6.8 6.8 6.8 6.4 6.2 6.3 6.1 6.1 6.3 6.4 6.5 6.2 6.6 6.5 6.4 6.3 5.9 5.8 5.7 5.7 5.7 5.8 5.6 5.5 5.3 5.4 5.6 5.7 5.0 5.9 6.2 6.4 6.5 6.4 6.3 6.0 5.6 5.1 5.2 5.3 5.3
7.1 6.9 7.1 6.7 6.4 6.4 6.4 6.7 6.3 6.3 6.2 6.3 6.8 6.4 6.5 6.6 6.5 6.3 6.4 6.4 6.1 6.0 5.5 5.6 5.6 5.4 5.5 5.2 5.6 5.7 5.8 5.9 5.8 5.9 5.9 6.0 5.8 5.7 5.6 5.4 5.5 6.1 5.8 5.8
7.3 7.3 7.0 6.4 6.4 6.5 6.3 6.3 6.2 6.0 6.1 6.5 6.9 6.5 6.5 6.4 6.4 6.3 6.2 6.7 6.3 5.7 5.8 5.7 5.4 5.2 5.3 5.3 5.6 5.6 5.5 5.6 5.7 5.7 5.9 5.6 5.6 5.7 5.9 5.9 5.9 5.4 5.3 5.6
7.2 7.1 7.0 6.7 6.5 6.4 6.2 6.2 6.3 6.1 6.3 6.5 6.6 6.7 6.7 6.5 6.0 6.1 6.0 6.3 6.1 6.0 5.8 5.9 5.4 5.3 5.1 5.2 5.4 5.5 5.4 5.4 5.5 5.5 5.4 4.9 5.3 4.9 5.4 5.3 5.0 4.6 4.7 4.6
7.1 7.1 6.4 6.1 6.3 6.4 6.4 6.4 6.5 6.5 6.8 6.5 6.6 6.4 6.3 6.2 6.2 5.9 6.1 6.1 6.1 6.0 5.8 5.7 5.4 5.4 5.5 5.4 5.1 5.0 5.0 4.8 5.0 5.1 5.1 5.2 5.3 5.5 5.5 5.1 4.7 4.7 4.8 5.1
7.0 6.5 6.3 6.4 6.8 6.7 6.8 7.0 6.4 6.7 6.5 6.8 7.1 7.2 6.1 6.3 6.1 5.7 6.1 5.9 6.0 6.0 5.8 5.7 5.7 5.7 5.6 5.7 5.5 5.2 5.1 5.2 5.0 5.1 5.3 5.2 5.2 5.1 5.2 5.0 5.0 5.1 5.1 4.9
6.7 6.5 6.4 6.6 6.6 6.7 6.8 6.8 6.5 6.6 6.3 7.1 7.1 7.2 7.3 6.6 6.0 5.9 6.0 6.1 5.8 5.8 5.9 5.9 6.1 5.9 6.0 6.0 5.8 5.5 5.7 5.5 5.2 5.2 5.3 5.4 5.3 5.3 5.6 5.8 5.9 5.9 6.1 6.1
6.6 6.5 6.7 6.8 7.0 6.7 6.6 6.8 7.0 6.8 6.9 7.1 7.0 6.7 6.6 6.1 5.9 5.9 5.6 5.5 5.6 5.7 5.9 6.0 6.0 6.0 6.0 5.8 5.7 5.6 5.8 5.7 5.6 5.5 5.2 5.2 5.2 5.4 5.7 5.8 5.7 5.9 5.9 5.9
6.6 6.5 6.9 6.8 6.3 6.6 6.4 6.8 6.7 6.8 6.9 7.0 6.8 6.2 6.1 6.1 6.0 5.8 5.5 5.6 5.9 5.8 5.8 5.9 5.9 6.0 6.0 6.0 6.0 6.1 5.8 6.2 6.2 5.8 5.9 5.7 5.6 5.4 5.7 5.8 5.9 5.9 6.2 6.0
Wind_Speed
24 22 21 20 20 22 19 8 9 7 4 11 11 18 27 26 31 32 29 29 31 30 29 27 27 29 27 23 21 26 26 17 19 26 25 28 29 29 27 17 21 19 20 16
23 22 21 19 17 14 8 8 13 15 15 15 15 23 30 29 29 29 32 32 30 26 30 27 29 27 26 25 27 25 20 21 16 24 24 25 30 28 25 26 21 21 19 16
24 22 20 19 15 10 5 5 6 10 11 17 24 23 26 27 27 26 29 24 28 31 28 28 27 27 29 20 22 7 8 17 26 18 21 18 25 30 28 26 18 21 22 20
25 22 20 19 14 8 5 4 7 15 10 17 8 16 22 21 25 23 20 16 19 19 21 26 27 28 29 26 23 14 15 16 21 28 29 25 25 29 29 27 26 22 21 27
25 22 22 20 12 5 3 4 7 10 15 22 23 12 19 20 25 19 19 12 22 20 19 15 16 21 24 24 25 19 22 17 18 24 25 27 24 27 28 29 29 27 26 25
24 22 20 19 12 10 3 3 7 5 11 18 16 17 20 17 23 20 19 17 17 17 16 22 25 25 27 26 21 22 20 17 16 21 25 23 24 26 22 23 24 25 22 23
23 22 18 16 14 14 5 3 1 2 6 14 16 22 21 16 23 15 16 19 4 17 16 22 24 24 25 23 25 25 20 20 16 17 19 24 17 19 24 23 18 20 23 21
23 21 19 16 16 15 7 5 3 3 4 11 17 24 18 18 20 25 19 22 17 9 8 7 13 12 20 21 24 19 15 18 14 15 17 15 19 18 12 9 13 16 17 17
21 19 17 17 14 12 7 7 5 2 3 10 20 16 17 16 17 14 17 18 16 6 5 3 2 4 11 15 16 11 16 5 9 13 17 23 20 7 6 4 9 10 11 11
18 17 17 15 14 12 7 5 8 2 3 8 18 15 14 10 9 9 17 11 6 8 6 6 4 7 11 11 18 11 11 9 13 12 14 15 7 4 5 10 2 7 7 8
17 18 15 13 15 11 7 5 7 4 4 11 17 23 19 15 9 8 5 7 7 9 12 10 7 10 9 12 17 10 8 9 11 11 11 15 14 17 18 4 3 5 8 9
16 14 13 10 8 7 8 5 5 4 5 8 18 20 24 24 21 14 9 7 7 4 4 1 4 7 5 12 12 17 13 14 11 12 11 9 7 10 6 7 6 13 13 13
14 12 9 10 11 10 9 5 6 2 3 10 14 17 20 22 25 20 13 9 9 5 4 2 2 5 4 5 10 17 15 12 15 15 13 4 11 9 8 11 19 18 20 21
13 13 12 12 12 10 9 4 3 3 3 5 11 6 16 18 16 21 18 17 6 5 2 4 3 3 2 4 7 8 6 10 12 14 15 14 12 10 11 17 17 18 19 21
14 13 13 13 12 12 12 7 7 6 3 4 11 20 23 17 13 11 15 14 12 8 3 1 2 2 3 3 3 3 5 4 4 1 11 13 12 11 14 17 18 18 19 19
16 15 14 14 13 12 6 3 2 7 4 3 6 12 14 15 17 12 12 11 10 6 2 1 2 7 4 3 2 4 7 5 8 5 5 21 20 18 19 19 18 18 18 15
20 19 17 16 14 8 4 4 3 14 6 3 5 6 6 10 11 10 8 11 7 4 3 3 2 4 3 1 2 6 6 3 9 12 8 12 17 12 16 18 19 19 16 15
24 21 18 17 15 14 7 5 13 4 2 1 3 5 5 9 9 6 8 7 4 3 2 2 4 1 2 2 1 3 8 11 8 8 13 13 16 16 17 17 17 19 17 17
28 22 16 6 4 3 1 10 6 2 2 2 3 3 5 8 3 5 4 3 4 5 4 3 0 0 2 6 4 5 8 5 14 12 13 14 15 15 16 14 14 15 15 15
30 9 3 2 1 12 11 2 2 3 4 4 4 6 3 3 5 4 6 8 5 3 2 0 2 2 5 10 6 6 6 6 8 17 15 14 14 12 11 10 8 9 10 10
2 3 3 8 9 2 3 3 4 3 4 4 4 7 7 5 4 5 2 2 1 3 2 0 2 2 3 7 7 7 7 8 9 10 12 10 9 7 6 5 5 7 0 2
6 4 6 4 3 1 3 5 5 3 3 3 4 5 7 1 4 6 4 3 2 4 1 3 2 2 3 4 5 7 5 8 9 7 4 5 6 10 8 6 6 6 9 12
3 3 4 5 1 4 4 5 4 3 3 3 4 8 3 5 6 1 2 4 3 5 3 3 2 1 2 4 6 13 5 2 3 4 2 7 8 7 7 6 4 3 5 5
3 4 5 4 3 3 4 10 7 7 2 10 4 1 5 3 2 1 5 4 5 3 3 4 2 3 7 9 5 8 8 7 2 6 6 10 15 10 8 6 7 9 6 5
3 4 4 5 5 6 11 11 4 6 8 9 7 4 7 4 1 2 3 4 5 5 4 2 2 4 2 2 7 5 4 6 8 10 11 9 8 10 7 10 9 7 6 5
2 2 9 9 11 14 14 14 10 14 2 3 2 8 5 7 5 7 8 3 5 3 2 2 1 3 8 7 10 5 8 7 9 8 6 8 11 6 8 7 6 6 6 7
5 7 9 10 9 8 11 11 12 11 12 11 6 8 8 6 5 5 4 3 4 5 4 5 6 8 5 7 7 14 11 4 4 5 11 6 5 3 4 7 10 9 9 2
Wind_Direction
318 317 318 318 323 329 301 305 274 295 196 236 238 249 253 260 267 277 275 258 261 270 276 259 257 229 230 235 239 218 213 226 241 249 213 209 220 215 227 238 229 230 251 248
315 316 319 319 322 327 315 292 288 281 281 264 259 266 266 264 262 257 263 268 270 259 261 267 271 270 250 232 223 228 225 216 227 240 247 218 210 224 222 233 251 252 233 243
308 308 311 311 313 310 295 288 298 298 252 244 252 266 273 279 274 267 264 281 279 265 264 256 265 272 277 250 237 83 203 242 218 235 230 229 213 214 221 229 231 240 247 235
305 300 302 302 307 293 275 268 283 314 308 298 336 332 315 305 293 288 309 313 292 319 273 258 256 258 270 266 249 217 227 243 247 220 249 230 233 219 221 223 236 240 235 245
308 303 298 299 300 278 253 268 304 328 302 298 299 280 266 275 288 284 305 281 293 317 304 346 321 329 282 255 250 229 222 230 251 249 231 241 243 231 221 221 226 238 251 255
309 303 298 290 289 205 243 225 269 296 290 290 294 296 293 334 302 275 291 290 286 291 314 323 310 294 287 287 279 258 206 229 227 240 239 242 238 242 239 232 223 229 236 249
309 303 298 288 275 219 246 276 286 275 280 295 294 300 293 298 304 291 281 288 299 263 329 312 316 295 279 265 265 261 214 212 226 235 230 236 239 237 235 255 255 233 231 235
309 303 302 296 284 249 244 247 197 208 267 283 289 288 307 316 306 273 252 270 254 254 294 356 325 291 269 252 250 256 253 203 219 228 233 249 240 232 239 227 247 271 267 265
311 300 295 295 294 273 247 253 208 188 263 261 262 301 300 295 302 314 281 287 270 145 210 113 268 295 305 227 224 253 264 258 227 214 227 215 231 158 117 19 247 5 1 340
313 310 303 296 294 282 257 259 224 179 250 256 271 272 291 311 303 303 307 341 275 190 226 180 208 261 263 281 218 194 228 245 223 223 220 243 105 109 215 200 165 8 354 340
314 314 311 300 298 290 254 272 225 197 224 277 270 268 275 261 235 242 282 330 251 220 218 219 196 244 256 259 276 224 230 226 233 230 218 233 130 159 223 116 310 348 348 333
321 317 321 318 310 298 278 272 259 247 238 267 295 274 270 271 264 277 237 189 252 294 250 148 306 270 308 294 272 260 246 246 240 250 253 287 81 83 109 94 73 34 14 346
331 343 324 314 308 286 265 280 300 255 263 274 255 261 262 250 242 242 261 270 213 293 90 320 267 266 336 264 256 274 249 0 240 218 227 156 126 113 92 90 68 54 44 38
337 335 327 318 309 291 266 265 266 282 288 280 290 268 266 293 217 214 224 241 275 284 246 255 265 279 47 305 312 305 359 320 325 226 132 106 71 74 82 81 77 66 54 45
338 333 327 319 312 310 282 261 257 227 226 297 299 293 272 257 230 209 197 217 225 252 304 46 301 285 257 236 266 314 358 345 307 13 149 115 120 103 81 78 75 74 67 57
326 322 318 315 317 317 302 300 276 221 203 274 302 335 298 274 182 202 191 204 222 234 259 21 221 253 196 249 309 293 353 310 35 43 313 92 86 80 69 69 67 69 63 66
322 309 298 294 297 297 270 277 299 327 294 262 295 290 323 314 152 184 188 197 209 198 115 231 249 259 293 154 245 334 327 67 105 95 78 71 84 88 78 74 58 61 61 58
318 310 293 280 285 273 262 233 234 270 293 264 275 289 291 236 176 188 173 178 134 117 179 235 239 45 297 216 303 107 16 85 127 140 109 106 91 71 59 55 71 68 53 43
313 310 290 273 223 244 61 113 111 169 215 269 260 279 338 346 69 283 145 139 198 160 208 234 335 169 353 322 307 72 48 55 100 93 97 87 81 70 64 62 50 59 49 33
309 298 236 263 159 122 126 175 206 194 201 223 246 203 272 173 197 233 205 183 201 175 61 128 71 30 347 344 46 90 89 52 85 97 84 79 73 75 80 79 87 67 54 27
270 307 275 338 327 223 199 250 229 188 222 222 259 252 245 175 202 243 6 30 278 93 332 69 76 61 358 344 41 74 87 77 77 87 107 118 122 104 93 101 90 86 51 109
320 285 282 267 298 290 342 310 298 226 266 255 271 280 313 342 31 44 352 303 47 75 94 56 53 74 50 41 48 50 75 95 85 74 48 329 310 137 142 140 166 202 215 199
239 246 316 339 339 311 295 346 309 283 268 280 312 15 34 336 34 56 298 39 24 141 65 71 61 75 165 253 110 122 146 104 96 100 211 272 164 104 78 64 131 85 70 99
359 347 336 4 342 311 293 288 282 276 323 290 321 297 120 244 262 124 3 30 37 68 46 45 145 234 254 235 215 160 178 262 139 128 71 47 74 70 35 66 58 76 39 61
19 9 338 339 293 271 255 285 16 313 329 320 348 342 44 52 73 2 69 60 42 24 26 54 36 329 20 143 200 207 80 69 73 54 57 59 83 92 80 82 71 66 55 49
319 290 353 1 358 2 352 351 349 354 40 297 351 22 42 32 29 17 20 47 17 343 334 359 221 32 29 358 19 348 98 80 64 58 58 64 73 31 63 71 101 95 70 81
20 354 12 15 1 9 352 349 343 356 14 28 36 32 25 28 30 26 20 4 315 360 33 35 50 75 349 6 25 52 3 28 117 94 77 347 64 62 52 52 34 23 25 90